{"data":{"norad_id":61057,"intl_designator":"2024-164H","name":"STARLINK-11231 [DTC]","alt_names":[],"object_type":"PAYLOAD","status":"ACTIVE","operator":null,"country":"US","launch_date":"2024-09-13","launch_site_code":"AFWTR","launch_vehicle":null,"mission":null,"orbit_class":"UNKNOWN","rcs_meters":null,"size_class":null,"mass_kg":null,"dimensions":null,"purposes":["comms"],"wikipedia_slug":null,"has_3d_model":false,"image_url":null,"decayed_at":null,"tle_current":{"epoch":"2026-05-24T20:03:29.545632Z","epoch_age_seconds":89576,"freshness":"FRESH","line1":"1 61057U 24164H   26144.83575863  .00000878  00000+0  12109-4 0  9997","line2":"2 61057  53.1596 296.2442 0001073 105.9198 254.1939 15.69703407 97374","mean_motion":15.69703407,"eccentricity":0.0001073,"inclination_deg":53.1596,"raan_deg":296.2442,"arg_perigee_deg":105.9198,"mean_anomaly_deg":254.1939,"bstar":1.2109e-5,"rev_number":9737,"period_min":91.737075525122,"perigee_km":359.02264232333,"apogee_km":360.46859193297,"semimajor_km":6737.8826171281,"source":"CELESTRAK","updated_at":"2026-05-25T13:38:19.354699Z"}}}